Weather in Centralny

Russia / Nizhny Novgorod Oblast'     56°04′28″N   43°30′12″E
temp.,
°C
wind,
m/s
gust,
m/s
humid.,
%
clouds,
%
prec.,
mm/h
press.,
hPa
HPBL,
m
25 june, sat
sat2500:00+14n33739 0.0 101422
03:00+13n22775 0.0 101515
06:00+16nnw25805 0.0 1016141
09:00+22n46632 0.0 1017544
12:00+24n695314 0.0 10162117
15:00+25nnw595536 0.0 10162148
18:00+23n6116316 0.0 1017518
21:00+18nnw47803 0.0 101796
26 june, sun
sun2600:00+16nnw35900 0.0 101866
03:00+15n33930 0.0 101935
06:00+17ne24834 0.0 1020166
09:00+21nne34570 0.0 1021658
12:00+23n45492 0.0 10211301
15:00+24n46495 0.0 10201469
18:00+23nne36640 0.0 1020281
21:00+18nnw00650 0.0 102011
27 june, mon
mon2700:00+17sw33690 0.0 102033
03:00+16sw410750 0.0 1019160
06:00+19wsw511850 0.0 1018297
09:00+25wnw69710 0.1 1017689
12:00+28nw68490 0.0 10161518
15:00+28nw595661 0.0 10162600
18:00+23n5116291 0.0 1016366
21:00+18n47863 0.3 1018122
28 june, tue
tue2800:00+14ne36715 0.0 101992
03:00+11n36804 0.0 102187
06:00+13nne48770 0.0 1022278
09:00+16nne67590 0.0 10221111
12:00+17n57472 0.0 10231601
15:00+18n56432 0.0 10231758
18:00+17nnw47560 0.0 1022499
21:00+12nnw34620 0.0 102348
29 june, wed
wed2900:00+10nne23690 0.0 102422
03:00+8nne33710 0.0 102423
06:00+11nne35705 0.0 1025165
09:00+16n35511 0.0 1025836
12:00+19n45405 0.0 10251818
15:00+20nnw44393 0.0 10241925
18:00+19nnw365716 0.0 1023281
21:00+13nw335675 0.0 102320